This is the latest recevied weather packets stored in our database for station/object KC0UFP. If no packets are shown the sender has not sent any weather packets the latest 10 day(s).
| Time | Temp. | Humidity | Pressure | Rain* | Wind** | Luminosity | Snow |
|---|---|---|---|---|---|---|---|
| 1777753944 | 20.56° C | 32% | 1016.9 hPa | 0 mm | - | 833 W/m² | - |
| 1777753638 | 20° C | 33% | 1017 hPa | 0 mm | - | 862 W/m² | - |
| 1777753337 | 19.44° C | 34% | 1017.1 hPa | 0 mm | - | 942 W/m² | - |
| 1777753034 | 20.56° C | 34% | 1017.1 hPa | 0 mm | - | 904 W/m² | - |
| 1777752730 | 20.56° C | 33% | 1017.1 hPa | 0 mm | - | 918 W/m² | - |
| 1777752426 | 20° C | 33% | 1017.2 hPa | 0 mm | - | 967 W/m² | - |
| 1777752122 | 20° C | 34% | 1017.1 hPa | 0 mm | - | 918 W/m² | - |
| 1777751821 | 20° C | 34% | 1017.2 hPa | 0 mm | - | 273 W/m² | - |
| 1777751517 | 20° C | 35% | 1017.2 hPa | 0 mm | - | 966 W/m² | - |
| 1777751214 | 20° C | 34% | 1017.2 hPa | 0 mm | - | 472 W/m² | - |
| 1777750910 | 20.56° C | 34% | 1017.2 hPa | 0 mm | - | 1007 W/m² | - |
| 1777750607 | 19.44° C | 35% | 1017.2 hPa | 0 mm | - | 1000 W/m² | - |
| 1777750304 | 20.56° C | 32% | 1017.2 hPa | 0 mm | - | 1041 W/m² | - |
| 1777749999 | 20.56° C | 34% | 1017.1 hPa | 0 mm | - | 1007 W/m² | - |
| 1777749697 | 20.56° C | 31% | 1017.2 hPa | 0 mm | - | 1008 W/m² | - |
| 1777749394 | 20° C | 34% | 1017.2 hPa | 0 mm | - | 1080 W/m² | - |
| 1777749091 | 19.44° C | 33% | 1017.2 hPa | 0 mm | - | 252 W/m² | - |
| 1777748789 | 20.56° C | 34% | 1017 hPa | 0 mm | - | 1147 W/m² | - |
| 1777748487 | 20° C | 34% | 1017.2 hPa | 0 mm | - | 1097 W/m² | - |
| 1777748181 | 20° C | 34% | 1017.3 hPa | 0 mm | - | 324 W/m² | - |
| 1777747878 | 20° C | 32% | 1017.1 hPa | 0 mm | - | 342 W/m² | - |
| 1777747574 | 20° C | 33% | 1017.3 hPa | 0 mm | - | 1108 W/m² | - |
| 1777747269 | 20° C | 32% | 1017.4 hPa | 0 mm | - | 266 W/m² | - |
| 1777746966 | 20° C | 33% | 1017.3 hPa | 0 mm | - | 1107 W/m² | - |
| 1777746663 | 20° C | 34% | 1017.4 hPa | 0 mm | - | 1239 W/m² | - |
* Rain latest hour (hover to see other rain measurements)
** Current wind speed in m/s (hover to see current wind gust speed)